Temp
78 77 76 75 75 75 76 75 75 75 75 75 75 74 73 71 67 68 72 70 77 77 76 76 76 75 75 75 75 76 75 75 75
77 76 75 75 75 75 75 75 75 75 75 75 75 73 70 67 65 66 68 71 77 77 77 75 75 74 74 75 74 74 75 75 75
76 75 75 75 75 75 75 75 75 75 75 74 74 72 70 67 65 66 66 74 76 76 75 74 74 74 74 73 73 73 73 73 73
76 75 75 75 75 75 75 75 74 74 74 73 72 71 69 65 65 68 65 74 75 75 74 73 73 72 72 72 72 72 72 72 72
74 73 74 75 74 74 74 74 74 74 73 72 71 69 68 64 64 65 66 74 75 74 73 72 72 72 71 71 71 71 72 72 72
69 69 71 73 73 73 73 73 73 71 71 71 69 67 63 62 63 64 72 74 74 73 72 72 71 71 71 71 71 71 71 71 71
68 67 70 72 72 72 73 73 71 68 63 62 66 62 62 62 62 63 72 74 73 73 72 71 71 70 70 70 70 70 70 70 70
65 65 66 66 66 65 67 66 64 62 61 61 60 60 60 61 61 65 71 73 73 72 71 71 70 70 70 70 69 69 69 69 68
63 64 64 64 63 63 63 62 61 61 61 60 60 60 59 60 61 62 69 72 73 72 71 71 70 70 69 69 69 68 68 68 67
61 62 62 62 62 61 61 61 61 60 60 60 60 60 60 60 61 61 65 70 72 72 72 71 70 70 69 69 68 68 67 67 67
61 61 61 61 61 61 61 60 60 59 59 60 60 60 60 59 60 60 61 68 70 72 72 72 71 70 70 69 68 67 67 67 66
62 61 60 61 61 61 60 59 59 58 59 59 59 59 58 58 59 60 59 62 66 70 72 72 72 71 70 70 68 67 67 66 66
61 61 61 60 60 60 59 58 58 58 58 58 58 58 57 57 58 59 58 59 60 65 69 71 72 71 71 70 69 68 67 66 65
63 62 61 60 59 59 59 58 58 57 57 58 57 57 56 57 59 58 57 57 58 57 63 66 68 69 71 71 71 69 67 66 65
63 61 61 60 58 58 57 58 57 57 57 60 59 55 55 55 54 56 58 56 57 56 57 57 59 65 69 70 71 70 68 66 65
64 63 61 60 60 61 59 58 57 55 55 54 54 53 54 54 54 54 54 55 56 55 55 55 55 57 66 68 69 70 70 68 66
65 64 63 61 59 59 58 58 56 56 55 53 51 51 54 53 54 53 54 52 54 54 54 54 53 53 54 58 66 67 69 68 66
64 63 65 63 62 61 59 58 57 56 54 55 56 48 48 48 51 50 51 52 50 51 52 52 53 54 54 57 59 61 61 60 60
64 63 62 61 60 60 59 60 59 57 56 53 57 55 56 54 52 52 49 51 53 53 51 52 53 54 52 54 54 55 55 54 55
63 63 61 60 60 60 59 58 57 61 63 58 55 56 53 53 53 56 53 50 50 51 52 52 52 53 51 50 53 56 55 56 56
MSLP
1018.34 1018.71 1019.06 1019.25 1019.57 1019.69 1019.77 1019.93 1020.11 1020.21 1020.27 1020.21 1020.35 1020.56 1020.69 1020.83 1020.89 1020.72 1020.69 1020.78 1020.63 1020.67 1020.79 1020.80 1020.79 1020.85 1020.90 1020.85 1020.85 1020.60 1020.59 1020.64 1020.60
1018.57 1019.05 1019.24 1019.46 1019.71 1019.90 1020.02 1020.18 1020.41 1020.52 1020.55 1020.63 1020.74 1020.86 1021.06 1021.17 1021.16 1021.08 1021.09 1021.15 1021.11 1021.03 1021.08 1021.18 1021.22 1021.30 1021.33 1021.32 1021.32 1021.18 1021.09 1021.01 1020.92
1018.86 1019.20 1019.38 1019.59 1019.90 1020.08 1020.20 1020.45 1020.62 1020.73 1020.81 1020.88 1020.99 1021.16 1021.37 1021.45 1021.48 1021.55 1021.59 1021.48 1021.49 1021.52 1021.64 1021.75 1021.79 1021.82 1021.76 1021.79 1021.71 1021.66 1021.60 1021.59 1021.49
1019.03 1019.34 1019.57 1019.84 1020.07 1020.24 1020.44 1020.66 1020.81 1020.92 1021.00 1021.15 1021.28 1021.45 1021.65 1021.78 1021.84 1021.91 1021.96 1021.82 1021.82 1021.90 1022.02 1022.15 1022.21 1022.24 1022.19 1022.14 1022.07 1022.02 1021.99 1022.01 1021.99
1019.12 1019.47 1019.81 1020.06 1020.28 1020.47 1020.70 1020.90 1021.02 1021.11 1021.27 1021.50 1021.60 1021.77 1021.94 1022.10 1022.17 1022.25 1022.18 1022.07 1022.15 1022.31 1022.46 1022.56 1022.53 1022.64 1022.67 1022.63 1022.53 1022.37 1022.32 1022.35 1022.29
1019.39 1019.77 1020.04 1020.34 1020.53 1020.72 1020.89 1020.99 1021.16 1021.35 1021.65 1021.79 1021.97 1022.08 1022.27 1022.44 1022.48 1022.50 1022.31 1022.31 1022.43 1022.59 1022.75 1022.86 1022.88 1022.93 1023.04 1023.05 1023.02 1022.90 1022.78 1022.71 1022.72
1019.74 1020.02 1020.32 1020.58 1020.74 1020.91 1021.05 1021.19 1021.34 1021.66 1022.06 1022.28 1022.19 1022.36 1022.51 1022.63 1022.65 1022.65 1022.46 1022.48 1022.65 1022.82 1023.02 1023.08 1023.17 1023.29 1023.30 1023.42 1023.41 1023.40 1023.39 1023.36 1023.29
1020.07 1020.36 1020.54 1020.83 1020.98 1021.20 1021.31 1021.49 1021.75 1021.93 1022.13 1022.40 1022.53 1022.54 1022.71 1022.87 1022.87 1022.76 1022.62 1022.61 1022.75 1022.99 1023.13 1023.25 1023.40 1023.48 1023.53 1023.47 1023.52 1023.72 1023.71 1023.75 1023.81
1020.21 1020.43 1020.64 1020.89 1021.13 1021.35 1021.54 1021.84 1021.89 1021.97 1022.12 1022.35 1022.59 1022.66 1022.80 1022.89 1022.95 1022.93 1022.81 1022.71 1022.81 1022.99 1023.18 1023.40 1023.58 1023.77 1023.80 1024.00 1023.88 1023.79 1024.01 1024.09 1024.19
1020.28 1020.50 1020.61 1020.83 1021.19 1021.41 1021.62 1021.83 1021.95 1022.09 1022.16 1022.29 1022.49 1022.66 1022.71 1022.83 1022.83 1022.90 1022.91 1022.88 1022.93 1023.06 1023.25 1023.47 1023.62 1023.81 1024.09 1024.15 1024.23 1024.31 1024.29 1024.32 1024.48
1020.18 1020.49 1020.66 1020.79 1021.02 1021.26 1021.50 1021.79 1022.01 1022.13 1022.21 1022.29 1022.34 1022.48 1022.59 1022.71 1022.75 1022.80 1022.87 1022.87 1022.92 1023.03 1023.13 1023.34 1023.65 1023.86 1024.01 1024.25 1024.52 1024.63 1024.68 1024.82 1024.85
1019.88 1020.30 1020.62 1020.69 1020.90 1021.16 1021.45 1021.72 1021.99 1022.24 1022.27 1022.28 1022.24 1022.41 1022.47 1022.60 1022.72 1022.75 1022.86 1022.95 1022.89 1022.99 1023.12 1023.36 1023.60 1023.83 1024.02 1024.25 1024.56 1024.75 1024.89 1025.04 1025.15
1019.76 1020.08 1020.30 1020.43 1020.75 1021.03 1021.32 1021.66 1022.15 1022.34 1022.44 1022.48 1022.38 1022.34 1022.57 1022.67 1022.71 1022.79 1022.89 1022.96 1023.01 1023.06 1023.12 1023.24 1023.47 1023.67 1023.86 1024.10 1024.44 1024.73 1025.00 1025.19 1025.32
1019.33 1019.66 1019.81 1020.14 1020.52 1020.81 1021.03 1021.54 1021.95 1022.24 1022.35 1022.41 1022.42 1022.39 1022.58 1022.61 1022.57 1022.67 1022.74 1022.78 1022.94 1023.08 1023.14 1023.22 1023.31 1023.51 1023.73 1023.83 1024.03 1024.42 1024.86 1025.22 1025.43
1018.84 1019.18 1019.44 1019.90 1020.31 1020.68 1020.96 1021.30 1021.63 1021.89 1021.97 1022.12 1022.21 1022.25 1022.41 1022.53 1022.63 1022.52 1022.47 1022.63 1022.71 1022.88 1023.10 1023.22 1023.32 1023.37 1023.55 1023.71 1023.84 1024.10 1024.52 1025.06 1025.34
1018.30 1018.73 1019.14 1019.54 1019.87 1020.09 1020.41 1020.88 1021.34 1021.78 1021.97 1022.40 1022.42 1022.24 1022.14 1022.23 1022.23 1022.26 1022.31 1022.36 1022.43 1022.58 1022.80 1023.02 1023.21 1023.36 1023.40 1023.62 1023.76 1023.88 1024.18 1024.69 1025.20
1017.66 1018.05 1018.57 1018.92 1019.39 1019.73 1020.03 1020.53 1021.17 1021.37 1021.67 1022.10 1022.65 1022.68 1022.14 1021.82 1021.69 1021.78 1021.99 1022.17 1022.40 1022.59 1022.71 1022.87 1023.03 1023.25 1023.38 1023.39 1023.54 1023.78 1024.00 1024.49 1024.81
1017.13 1017.51 1017.81 1018.22 1018.70 1019.10 1019.44 1019.99 1020.49 1020.87 1021.28 1021.16 1021.60 1022.58 1022.51 1022.26 1021.76 1021.79 1021.84 1022.07 1022.40 1022.55 1022.60 1022.67 1022.84 1023.01 1023.38 1023.67 1023.72 1023.78 1024.01 1024.15 1025.13
1016.73 1017.07 1017.47 1017.89 1018.16 1018.59 1018.84 1019.24 1019.68 1020.16 1020.55 1021.09 1020.95 1021.15 1021.45 1021.91 1022.06 1021.87 1021.80 1021.77 1021.79 1021.87 1022.02 1022.11 1022.35 1022.72 1023.12 1023.50 1023.77 1024.08 1024.78 1024.84 1025.31
1016.51 1016.72 1017.04 1017.51 1017.80 1018.09 1018.38 1018.77 1019.15 1019.33 1019.43 1019.85 1020.27 1020.75 1021.15 1021.44 1021.75 1021.47 1021.49 1021.65 1021.87 1021.93 1021.93 1021.88 1022.10 1022.20 1022.64 1023.35 1023.60 1023.93 1024.61 1025.06 1025.35
Wind_Speed
12 16 15 14 13 13 14 13 13 11 11 11 13 12 12 9 4 6 7 5 13 15 13 12 14 13 14 14 14 13 15 16 16
12 17 15 15 14 13 13 12 11 10 10 11 11 12 10 5 5 6 6 6 8 9 11 13 12 12 9 9 9 9 9 9 11
13 16 15 15 14 13 12 11 9 8 9 10 9 11 8 5 6 6 4 8 9 9 8 8 8 8 10 10 10 10 11 10 11
15 15 14 14 13 12 11 10 8 7 8 9 7 10 9 5 4 4 3 6 8 8 9 8 8 8 8 9 9 9 10 10 10
13 12 12 12 11 10 10 9 7 6 7 7 8 9 8 4 4 3 2 7 7 7 7 7 7 7 7 7 8 9 9 10 10
7 6 9 9 10 9 8 7 5 5 5 6 7 6 3 3 2 2 6 7 6 6 6 6 6 6 6 7 7 8 9 9 9
5 6 9 8 7 7 6 5 3 4 2 2 4 2 3 2 2 1 6 7 6 6 5 5 5 5 6 6 6 7 7 8 8
3 3 3 3 4 2 2 2 1 0 0 2 2 2 3 1 1 3 6 7 6 6 5 5 4 5 5 6 6 6 6 7 7
4 4 4 4 3 4 3 1 2 2 2 1 2 1 2 2 2 3 7 8 7 6 6 5 4 4 4 4 5 7 6 6 5
4 3 3 4 3 3 3 3 3 3 3 3 3 4 4 5 3 3 7 8 8 7 7 6 6 6 4 4 4 4 5 5 5
4 4 4 4 4 4 4 4 4 4 3 5 4 5 4 5 5 4 4 9 9 9 9 8 8 7 6 5 4 3 3 3 3
6 4 4 4 4 5 3 3 2 3 3 5 4 3 5 5 5 4 4 4 9 10 10 10 9 8 8 7 5 4 3 2 1
6 5 5 5 4 4 3 3 3 4 3 3 4 3 3 5 5 4 4 4 3 7 10 11 11 11 10 9 7 6 4 3 2
7 6 5 5 4 4 4 3 3 3 3 4 4 4 4 5 3 6 6 6 5 4 6 9 10 10 12 11 10 8 5 4 3
8 5 5 5 4 4 3 4 3 3 4 3 3 3 4 3 4 5 4 5 6 5 6 4 4 9 11 13 12 10 8 6 4
9 6 6 5 7 7 7 4 5 3 2 2 2 2 5 5 5 4 4 5 6 6 5 4 3 4 10 12 13 12 10 8 5
8 8 8 7 4 6 6 5 3 3 5 4 2 3 4 3 5 4 4 5 3 4 5 5 5 5 4 6 8 7 9 6 4
7 7 7 7 6 7 6 7 7 4 4 5 4 1 5 2 2 2 3 3 3 3 5 6 5 5 3 3 3 10 10 5 7
7 6 6 6 5 5 6 6 5 4 5 2 5 1 3 4 3 0 0 3 5 6 5 5 5 5 4 7 11 14 11 6 7
6 6 6 6 5 6 6 5 7 7 6 5 3 4 2 1 4 9 5 1 2 3 2 3 3 5 6 5 7 10 7 10 11
Wind_Direction
130 134 127 125 127 122 123 124 116 110 99 90 99 97 105 99 74 71 86 75 78 88 82 72 72 70 63 59 49 48 65 62 60
136 138 135 134 133 129 128 126 123 115 101 98 99 104 104 105 83 74 63 64 83 80 73 64 59 61 64 73 76 75 70 61 62
149 145 141 141 142 138 134 134 130 119 109 97 95 118 112 93 88 83 75 97 99 92 91 83 82 83 83 82 81 81 81 76 73
156 148 147 149 148 145 142 141 141 133 110 93 110 126 119 108 104 97 82 100 105 105 101 95 93 89 87 88 89 87 87 84 81
152 145 155 152 152 150 153 151 144 132 116 94 100 119 110 108 108 102 129 115 112 107 108 103 97 93 91 92 95 97 94 93 90
132 135 147 152 155 158 163 160 141 122 115 104 98 102 113 118 117 134 139 129 121 121 119 112 105 103 98 96 96 96 98 96 94
123 140 145 153 155 160 169 170 151 110 89 77 77 80 152 147 156 190 159 145 142 137 134 126 117 116 112 106 101 95 92 91 93
129 129 135 138 147 140 142 135 103 186 44 102 106 105 159 168 193 234 180 164 160 155 153 146 144 146 138 133 119 105 101 96 93
154 161 168 163 170 171 167 194 203 222 248 190 133 205 188 198 206 246 205 181 178 176 171 172 177 173 161 153 136 130 115 106 99
165 186 171 168 171 180 191 202 211 233 242 248 188 205 228 216 199 208 229 197 189 192 195 197 196 191 194 176 161 147 130 122 112
180 185 192 187 184 188 189 199 213 234 232 253 242 238 222 212 204 200 222 206 196 202 209 211 214 211 203 192 189 172 150 133 113
182 184 193 202 192 196 197 217 223 247 246 257 269 244 231 211 209 203 210 221 209 208 219 223 223 221 216 209 204 196 190 177 157
181 186 204 194 187 187 187 189 225 238 220 261 266 255 222 223 217 211 209 215 213 223 229 227 229 227 226 221 216 214 215 215 233
185 192 206 185 186 191 188 191 185 215 230 236 236 245 229 228 206 221 215 213 206 212 237 235 226 228 235 234 226 218 214 222 254
187 192 196 183 180 197 177 191 196 198 218 233 243 236 247 239 226 229 227 216 211 209 215 236 235 224 227 239 242 229 210 211 241
189 197 197 188 200 202 194 174 198 217 183 98 315 294 238 241 232 223 222 219 217 209 210 212 219 238 223 232 238 247 233 213 234
189 194 203 195 187 194 185 171 180 203 181 157 91 312 314 277 234 226 223 229 217 221 218 210 215 218 221 214 229 261 246 226 233
195 196 202 198 192 205 190 186 187 199 204 206 153 113 233 342 334 298 244 232 211 228 222 222 219 210 206 229 107 87 74 63 29
200 206 199 215 195 204 207 194 198 158 213 195 238 267 139 201 309 267 223 224 214 206 206 206 205 191 162 159 140 128 146 149 238
225 217 200 205 198 218 194 178 204 208 220 198 158 200 162 178 209 264 243 298 353 346 320 224 205 171 153 154 171 168 195 234 223